TURKMENALEM52E/MONACOSAT

Last updated on Fri Jul 11 2025 00:02:44 GMT+0000 (Coordinated Universal Time)

1 40617U 15023A 25191.38377983 .00000116 00000+0 00000+0 0 9991 2 40617 0.0138 84.5921 0002974 27.3133 6.8522 1.00274974 37425
UTC large
Height (km)
Speed (km/s)
/
Latitude / Longitude
Inclination (degrees)
Orbital Period (minutes)
Azimuth
Elevation
Range (km)
Doppler Factor

Next 0 passes for location: London (51.5072 / 0.1276)

Sorry there are no passes over London.